Погода в Гувии

Греция     39°39′10″N   19°50′35″E
темп.,
°C
ветер,
м/с
пор.,
м/с
влажн.,
%
обл.,
%
осадки,
мм/ч
давл.,
гПа
погр.,
м
12 мая, ср
ср1200:00+16ю22770 0.0 101322
03:00+16ююв237617 0.0 101253
06:00+16ююв33795 0.0 101179
09:00+19ююв35665 0.0 1011609
12:00+22ююв346395 0.0 1011888
15:00+21св126742 0.3 1010747
18:00+20сз236910 0.3 1010667
21:00+18сз11800 0.3 101040
13 мая, чт
чт1300:00+16зсз22820 0.1 101154
03:00+16сз23810 0.1 1010104
06:00+15зсз33780 0.0 1010174
09:00+18сз11583 0.0 1011476
12:00+20зсз23454 0.0 10111037
15:00+21зсз234416 0.0 10111127
18:00+20юз33469 0.0 1011806
21:00+17вюв23703 0.1 1011106
14 мая, пт
пт1400:00+15юв34822 0.1 1012118
03:00+15юв33865 0.6 101291
06:00+15вюв22861 0.8 101254
09:00+18вюв22672 1.3 1013266
12:00+21ю34562 0.3 10141177
15:00+21ююз555641 0.4 10141119
18:00+20ю345597 0.0 10141059
21:00+17ююв23772 0.0 1014124
15 мая, сб
сб1500:00+15юв238596 0.0 1014101
03:00+15юв3384100 0.0 101299
06:00+15юв4984100 0.1 1010416
09:00+15ююв81492100 11.6 10101029
12:00+18ююз787445 4.2 10111124
15:00+18зсз45649 7.7 10111039
18:00+18сз35615 0.1 1011859
21:00+16зсз2372100 0.1 1011149
16 мая, вс
вс1600:00+16сз1271100 0.0 1012149
03:00+15зюз22755 0.0 1012119
06:00+14ю007898 0.0 101176
09:00+17с126796 0.0 1012450
12:00+19сз34614 0.0 1013881
15:00+20сз455797 0.0 1012789
18:00+20з34595 0.0 1012588
21:00+17зюз127679 0.0 101283